Alamogordo, NM

5:07 AM MDT on August 22, 2019 (GMT -0600)
Alamogordo-White Sands Regional

Weather History for KALM - July, 2019

Change the Weather History Date:

Wednesday, July 17, 2019

  Actual Average Record
Temperature  
Mean Temperature 83 °F -  
Max Temperature 98 °F 93 °F 105 °F (1949)
Min Temperature 68 °F 66 °F 57 °F (1955)
Cooling Degree Days 18    
Growing Degree Days 33 (Base 50)    
Moisture  
Dew Point 50 °F    
Average Humidity 32    
Maximum Humidity 60    
Minimum Humidity 14    
Precipitation  
Precipitation 0.00 in - - ()
Sea Level Pressure  
Sea Level Pressure 30.05 in    
Wind  
Wind Speed 8 mph (South)    
Max Wind Speed 22 mph    
Max Gust Speed 29 mph    
Visibility 10 miles    
Events      
Averages and records for this station are not official NWS values.
T = Trace of Precipitation, MM = Missing Value Source: NWS Daily Summary

Daily Weather History Graph

Daily Weather History Graph

Search for Another Location

Airport or City:

Astronomy

Jul. 17, 2019 Rise Set
Actual Time 6:07 AM MDT 8:12 PM MDT
Civil Twilight 5:39 AM MDT 8:40 PM MDT
Nautical Twilight 5:05 AM MDT 9:13 PM MDT
Astronomical Twilight 4:29 AM MDT 9:50 PM MDT
Moon 9:03 PM MDT (7/17) 6:42 AM MDT (7/17)
Length of Visible Light 15h 00m
Length of Day
14h 04m
Full, 99% of the Moon is Illuminated
Jul 17
Full
Jul 24
Last Quarter
Jul 31
New
Aug 7
First Quarter
Aug 15
Full

Hourly Weather History & Observations

Time (MDT) Temp. Heat Index Dew Point Humidity Pressure Visibility Wind Dir Wind Speed Gust Speed Precip Events Conditions
12:15 AM 84.2 °F - 46.4 °F 27% 30.08 in 10.0 mi NNW 5.8 mph - N/A   Clear
12:35 AM 82.4 °F - 48.2 °F 30% 30.08 in 10.0 mi NNE 4.6 mph - N/A   Clear
12:55 AM 82.4 °F - 50.0 °F 32% 30.08 in 10.0 mi NNW 5.8 mph - N/A   Clear
1:15 AM 80.6 °F - 50.0 °F 34% 30.06 in 10.0 mi NNE 6.9 mph - N/A   Clear
1:35 AM 80.6 °F - 48.2 °F 32% 30.06 in 10.0 mi North 8.1 mph - N/A   Clear
1:55 AM 80.6 °F - 48.2 °F 32% 30.05 in 10.0 mi NE 6.9 mph - N/A   Clear
2:15 AM 80.6 °F - 48.2 °F 32% 30.04 in 10.0 mi ENE 4.6 mph - N/A   Clear
2:35 AM 77.0 °F - 48.2 °F 36% 30.04 in 10.0 mi SE 4.6 mph - N/A   Clear
2:55 AM 75.2 °F - 48.2 °F 38% 30.04 in 10.0 mi SSE 3.5 mph - N/A   Clear
3:15 AM 73.4 °F - 50.0 °F 44% 30.04 in 10.0 mi SSW 5.8 mph - N/A   Clear
3:35 AM 71.6 °F - 51.8 °F 50% 30.04 in 10.0 mi ESE 3.5 mph - N/A   Clear
3:55 AM 68.0 °F - 53.6 °F 60% 30.04 in 10.0 mi SE 9.2 mph - N/A   Clear
4:15 AM 68.0 °F - 53.6 °F 60% 30.04 in 10.0 mi SE 8.1 mph - N/A   Clear
4:35 AM 69.8 °F - 53.6 °F 56% 30.04 in 10.0 mi South 3.5 mph - N/A   Clear
4:55 AM 68.0 °F - 53.6 °F 60% 30.04 in 10.0 mi SE 5.8 mph - N/A   Clear
5:15 AM 68.0 °F - 53.6 °F 60% 30.04 in 10.0 mi SE 6.9 mph - N/A   Clear
5:35 AM 68.0 °F - 53.6 °F 60% 30.05 in 10.0 mi SSE 5.8 mph - N/A   Clear
5:55 AM 68.0 °F - 53.6 °F 60% 30.06 in 10.0 mi SSE 5.8 mph - N/A   Clear
6:15 AM 68.0 °F - 53.6 °F 60% 30.07 in 10.0 mi South 8.1 mph - N/A   Clear
6:35 AM 69.8 °F - 53.6 °F 56% 30.08 in 10.0 mi SSE 6.9 mph - N/A   Clear
7:15 AM 71.6 °F - 53.6 °F 53% 30.09 in 10.0 mi South 5.8 mph - N/A   Clear
7:35 AM 73.4 °F - 55.4 °F 53% 30.10 in 10.0 mi SW 4.6 mph - N/A   Clear
7:55 AM 75.2 °F - 55.4 °F 50% 30.11 in 10.0 mi SSW 9.2 mph - N/A   Clear
8:15 AM 75.2 °F - 55.4 °F 50% 30.11 in 10.0 mi South 10.4 mph - N/A   Clear
8:35 AM 80.6 °F 80.5 °F 55.4 °F 42% 30.11 in 10.0 mi SSE 12.7 mph - N/A   Scattered Clouds
8:55 AM 84.2 °F 82.8 °F 53.6 °F 35% 30.12 in 10.0 mi South 12.7 mph - N/A   Partly Cloudy
9:15 AM 84.2 °F 82.8 °F 53.6 °F 35% 30.13 in 10.0 mi South 9.2 mph - N/A   Clear
9:35 AM 84.2 °F 82.8 °F 53.6 °F 35% 30.12 in 10.0 mi South 10.4 mph - N/A   Clear
9:55 AM 86.0 °F - 51.8 °F 31% 30.12 in 10.0 mi SSE 15.0 mph - N/A   Clear
10:15 AM 87.8 °F - 51.8 °F 29% 30.12 in 10.0 mi SSE 12.7 mph - N/A   Clear
10:35 AM 89.6 °F 87.3 °F 53.6 °F 29% 30.12 in 10.0 mi South 15.0 mph 21.9 mph N/A   Clear
10:55 AM 89.6 °F 87.3 °F 53.6 °F 29% 30.12 in 10.0 mi SSW 12.7 mph 18.4 mph N/A   Clear
11:15 AM 89.6 °F - 51.8 °F 27% 30.12 in 10.0 mi SSE 13.8 mph 17.3 mph N/A   Clear
11:35 AM 91.4 °F - 51.8 °F 26% 30.11 in 10.0 mi South 10.4 mph 17.3 mph N/A   Clear
11:55 AM 93.2 °F - 50.0 °F 23% 30.11 in 10.0 mi SSW 8.1 mph - N/A   Clear
12:15 PM 93.2 °F - 50.0 °F 23% 30.10 in 10.0 mi WSW 8.1 mph - N/A   Clear
12:35 PM 93.2 °F - 50.0 °F 23% 30.10 in 10.0 mi SSW 6.9 mph - N/A   Clear
12:55 PM 93.2 °F - 48.2 °F 21% 30.08 in 10.0 mi SW 11.5 mph 16.1 mph N/A   Clear
1:15 PM 93.2 °F - 48.2 °F 21% 30.07 in 10.0 mi NW 3.5 mph 17.3 mph N/A   Clear
1:35 PM 95.0 °F - 48.2 °F 20% 30.07 in 10.0 mi WNW 5.8 mph - N/A   Clear
1:55 PM 95.0 °F - 48.2 °F 20% 30.06 in 10.0 mi SSE 6.9 mph 17.3 mph N/A   Clear
2:15 PM 95.0 °F - 48.2 °F 20% 30.05 in 10.0 mi West 9.2 mph - N/A   Clear
2:35 PM 96.8 °F - 46.4 °F 18% 30.04 in 10.0 mi NW 6.9 mph - N/A   Partly Cloudy
2:55 PM 96.8 °F - 46.4 °F 18% 30.03 in 10.0 mi NW 13.8 mph 21.9 mph N/A   Clear
3:15 PM 95.0 °F - 44.6 °F 18% 30.03 in 10.0 mi North 11.5 mph 17.3 mph N/A   Clear
3:35 PM 95.0 °F - 46.4 °F 19% 30.02 in 10.0 mi North 9.2 mph - N/A   Clear
3:55 PM 96.8 °F - 46.4 °F 18% 30.01 in 10.0 mi NW 6.9 mph - N/A   Clear
4:15 PM 96.8 °F - 44.6 °F 17% 30.00 in 10.0 mi Calm Calm - N/A   Clear
4:35 PM 96.8 °F - 44.6 °F 17% 29.98 in 10.0 mi ESE 4.6 mph - N/A   Clear
4:55 PM 98.6 °F - 41.0 °F 14% 29.98 in 10.0 mi North 5.8 mph 19.6 mph N/A   Clear
5:15 PM 98.6 °F - 41.0 °F 14% 29.97 in 10.0 mi North 10.4 mph 17.3 mph N/A   Clear
5:35 PM 98.6 °F - 41.0 °F 14% 29.97 in 10.0 mi North 8.1 mph - N/A   Clear
5:55 PM 98.6 °F - 44.6 °F 16% 29.96 in 10.0 mi NE 6.9 mph - N/A   Partly Cloudy
6:15 PM 96.8 °F - 44.6 °F 17% 29.96 in 10.0 mi Calm Calm - N/A   Clear
6:35 PM 96.8 °F - 42.8 °F 16% 29.96 in 10.0 mi North 10.4 mph - N/A   Clear
6:55 PM 95.0 °F - 42.8 °F 16% 29.96 in 10.0 mi NW 4.6 mph - N/A   Clear
7:15 PM 93.2 °F - 48.2 °F 21% 29.96 in 10.0 mi SSW 11.5 mph - N/A   Clear
7:35 PM 91.4 °F - 48.2 °F 23% 29.97 in 10.0 mi SSW 15.0 mph - N/A   Clear
7:55 PM 91.4 °F - 48.2 °F 23% 29.98 in 10.0 mi SSW 12.7 mph 17.3 mph N/A   Clear
8:15 PM 89.6 °F - 48.2 °F 24% 29.99 in 10.0 mi SSW 9.2 mph - N/A   Clear
8:35 PM 86.0 °F - 48.2 °F 27% 30.00 in 10.0 mi South 9.2 mph - N/A   Clear
8:55 PM 84.2 °F - 50.0 °F 30% 30.01 in 10.0 mi SE 10.4 mph - N/A   Clear
9:15 PM 86.0 °F - 48.2 °F 27% 30.01 in 10.0 mi SSE 10.4 mph - N/A   Clear
9:35 PM 86.0 °F - 50.0 °F 29% 30.01 in 10.0 mi SSE 11.5 mph - N/A   Clear
9:55 PM 86.0 °F - 50.0 °F 29% 30.02 in 10.0 mi SSE 10.4 mph - N/A   Clear
10:15 PM 86.0 °F 84.2 °F 53.6 °F 33% 30.04 in 10.0 mi SSW 12.7 mph - N/A   Scattered Clouds
10:35 PM 86.0 °F 84.2 °F 53.6 °F 33% 30.05 in 10.0 mi South 15.0 mph 23.0 mph N/A   Partly Cloudy
10:55 PM 84.2 °F 82.8 °F 53.6 °F 35% 30.04 in 10.0 mi South 21.9 mph 28.8 mph N/A   Clear
11:15 PM 82.4 °F 81.4 °F 53.6 °F 37% 30.05 in 10.0 mi SSE 18.4 mph 24.2 mph N/A   Clear
11:35 PM 82.4 °F 81.4 °F 53.6 °F 37% 30.05 in 10.0 mi South 13.8 mph - N/A   Clear
11:55 PM 80.6 °F 80.3 °F 53.6 °F 39% 30.05 in 10.0 mi South 13.8 mph - N/A   Clear